Вернуться в каталог

BLOCK DM-SL R/B

АктивенMEO
NORAD 67758·ROCKET BODY·🇷🇺 Russia

Запущен Feb 12, 2026 с Baikonur Cosmodrome

Loading…

Ближайшие Пролёты (ближайшие 24 часа)

TLE

СвежийSource: Space-Track

Эпоха: Sep 14, 2026, 12:54 UTC

1 67758U 26028C   26257.53773643 -.00000025  00000-0  00000-0 0  9999
2 67758   0.1529  51.3981 0101134 262.6111  45.1701  1.03179975  1919

Отслеживайте BLOCK DM-SL R/B в реальном времени с AllMySat

Download on the App Store